Location: Branche des Alpilles
(43.6087°N, 4.6976°E)
Time: 09:56:18
(UTC+00:00)

FENGYUN 1C DEB - Pass Details

Date: 23 June 2021
Orbit: 782 x 878 km, 99.7° (Epoch: 28 July)

Event Time Altitude Azimuth Distance (km) Brightness Sun altitude
Exits shadow 01:11:43 25° 152° (SSE) 1,594 ? -20.0°
Maximum altitude 01:14:53 74° 72° (ENE) 838 ? -19.8°
Drops below altitude 10° 01:20:04 10° 348° (NNW) 2,365 ? -19.4°
Sets 01:22:23 0° 347° (NNW) 3,290 ? -19.2°
